Погода Кайластуй

Погода Кайластуй : погода сейчас, прогноз погоды и архив. Всё, что Вы хотите узнать о погоде Кайластуй!

Хотите узнать прогноз погоды Кайластуй? Тогда Вам сюда: Погода Кайластуй

Поиск расширенной информации на нашем сайте:

Другие новости

Новости СМИ2

Главная страница сайта

Новости сайта

02.10.2013

Напоминаем, что на нашем новом сайте вы можете получить высокодетализированные прогнозы погоды по пунктам России, СНГ и мира (включающие важные для авиации метеовеличины, такие как направление и скорость ветра, видимость, явления погоды, количество и форма облачности, нижняя и верхняя граница облачности), а также ознакомиться с разнообразными материалами по авиационной метеорологии и подборкой полезных ссылок на эту тему.

Сайт Метеоцентр.Азия посвящён разработке технологий оптимизации авиаметеорологического обслуживания, включая проектирование и перспективное создание нескольких автоматизированных авиаметеорологических систем:
- система выпуска высокодетальных прогностических карт явлений погоды для нижнего воздушного пространства по России и ближнему зарубежью;
- система верификации прогнозов TAF (выпускаемых синоптиками официальных АМСГ РФ и ближнего зарубежья) и AUTOTAF (выпускаемых сайтом Метеоцентр.Азия) - выявление ошибок, онлайн-сопоставление с фактической погодой METAR, автоматическое внесение коррективов в прогнозы при резком отклонении фактической погоды от прогноза, подсчёт оправдываемости прогнозов по элементам и в целом;
- система обработки, анализа и отображения авиаметеорологической информации для применения провайдерами метеорологической информации.

Рекомендуем: Чебплитка на нашем сайте вы сможете купить брусчатку.

Погода Кайластуй - сегодня

Время (UTC), дата Ветер
(°,м/с) 
Видим.   Явления Облачность Т
(°С)
Тd
(°С)
f(%) Тe
(°С)
Pmin
(гПа)
dP
(гПа)
Po
(мм)
O2
(г/м3)
Тmin Tmax R s Состояние
почвы
21 26.03.17 тихо ()   20000 м    ясно 
-11.3 -12.5 91 -11  1023.6  -0.9  715  302           
00 27.03.17 180 (Ю) н/о    н/о 
-6.6 -9.5 80 -6  1022.6  0.2  715  296  -12.3         
03 27.03.17 300 (СЗ) 20000 м    3/3 600 м кучево-дожд. 
[Cb calv]
+6.2 -13 24 +5  1018.2  -1.1  715  283           
06 27.03.17 290 (З) 20000 м    6/6 600 м кучево-дожд. 
[Cb calv]
+7.1 -13.3 22 +6  1015.6  -2.2  713  281           
09 27.03.17 240 (ЮЗ) 2-10{12}  20000 м    6/6 600 м кучево-дожд. 
[Cb calv]
+6.7 -11.7 25 +7  1014.1  -1.5  712  281           
12 27.03.17 260 (З) 4{10}  20000 м    ясно 
+1.1 -11 40 -1  1015.7  0.3  712  287    +8.5       
15 27.03.17 170 (Ю) 20000 м    ясно 
-4.9 -9.9 68 -6  1016.9  -0.3  712  293           
18 27.03.17 280 (З) 20000 м    ясно 
-7.1 -9.8 81 -7  1016.6  -0.8  711  295           
21 27.03.17 200 (Ю) 20000 м    3/0 верхняя 
[Ci fib]
-7.1 -8.8 88 -7  1015  -1.5  710  295           
00 28.03.17 210 (ЮЗ) 20000 м    9/8 600 м кучево-дожд., средняя 
[Cb calv|Ac cuf]
-3.6 -6.4 81 -6  1013.4  -0.6  710  290  -8         
03 28.03.17 330 (СЗ) 20000 м    4/0 средняя 
[Ac cuf]
+7.6 -9.3 29 +8  1009.4  -1.2  709  279           
06 28.03.17 360 (С) 5{12}  20000 м    8/8 600 м кучево-дожд. 
[Cb calv]
+8.5 -11 24 +7  1008.4  -0.7  708  278           
09 28.03.17 320 (СЗ) 8-13{14}  20000 м    8/5 600 м кучево-дожд., средняя 
[Cb calv|Ac cuf]
+6.6 -14.4 21 +4  1010.2  1.2  709  280           
12 28.03.17 320 (СЗ) 6{14}  20000 м    3/3 600 м кучево-дожд. 
[Cb calv]
+0.3 -7.6 55 -3  1013.9  711  287    +9.8       
15 28.03.17 330 (СЗ) 20000 м    ясно 
-0.8 -5.8 69 -4  1014.5  0.4  711  288           
18 28.03.17 340 (С) 7-10{11}  20000 м    3/0 верхняя 
[Ci fib]
+0.6 -4.1 71 -3  1014.8  0.6  711  286           
21 28.03.17 010 (С) 6-11{11}  20000 м    8/5 600 м кучево-дожд., средняя 
[Cb calv|Ac lent]
+0.7 -3.4 74 -3  1016.5  1.7  713  287           
00 29.03.17 020 (С) 7-10{14}  4000 м  слаб. ливневой снег  10/10 600 м кучево-дожд. 
[Cb calv]
+0.4 -3.5 75 -3  1019.5  2.7  715  288  -1.4    0.0     
03 29.03.17 030 (СВ) 6-10{12}  20000 м  {ливн. осадки}  10/10 600 м кучево-дожд. 
[Cb calv]
+2.4 -3.5 65 -1  1021.4  2.2  716  286           
06 29.03.17 350 (С) 5{11}  20000 м  в посл. час ливневой снег  10/10 600 м кучево-дожд. 
[Cb calv]
+3.6 -3.6 59 +1  1022.1  0.9  717  285           
09 29.03.17 110 (В) 4{10}  20000 м  {ливн. осадки}  8/8 600 м кучево-дожд. 
[Cb calv]
+3.9 -3.2 60 +2  1023.2  1.1  718  285           
12 29.03.17 360 (С) 20000 м    8/0 средняя 
[Ac cuf]
+2.1 -7.6 49 -1  1026.4  2.5  720  288    +5.6  0.0     
15 29.03.17 360 (С) 20000 м    3/0 верхняя 
[Ci fib]
+0.3 -9.2 49 -3  1028.5  1.5  721  291           
18 29.03.17 340 (С) 20000 м    3/0 верхняя 
[Ci fib]
-1 -11.6 44 -3  1030  1.1  722  293           
21 29.03.17 350 (С) 20000 м    3/0 верхняя 
[Ci fib]
-3.4 -12.2 51 -7  1030.9  0.3  722  296           
Время (UTC), дата Ветер
(°,м/с) 
Видим.   Явления Облачность Т
(°С)
Тd
(°С)
f(%) Тe
(°С)
Pmin
(гПа)
dP
(гПа)
Po
(мм)
O2
(г/м3)
Тmin Tmax R s Состояние
почвы

Для получения пояснительной информации подведите курсор к названию столбца.

ПОГОДА Кайластуй - архив

Всё, что Вы хотите узнать о погоде Кайластуй - удобно и подробно!

Выберите нужную дату (начиная с 1 января 2015* года) и нажмите кнопку "Найти".
Будут отображены архивные сводки погоды по пункту Кайластуй, начиная с указанной даты.


Отображать данные в формате CSV (для использования в таблицах Excel)


Внимание! Наш архив погоды предназначен исключительно для личного некоммерческого использования в познавательных целях. Если Вам необходимы официальные справки о состоянии погоды (для производственных, юридических, коммерческих и т.п. целей), обращайтесь в органы Росгидромета.

*Примечание: данная дата относится к архиву по метеостанциям СССР (Россия, СНГ, Балтия).
Архив по метеостанциям Зарубежной Европы и Азии (кроме Китая) хранится 10 дней, по другим регионам земного шара (Китай, Африка, Америка, Австралия, Океания) - 1 день.

Кайластуй - район местоположения метеостанции


Название, широта, долгота, высота метеостанции:
Кайластуй 49.8°ш. 118.4°д. 550 м над ур. моря [Российская Федерация]

Дополнительная информация

В oтличие oт бoльшинства пoгoдных сайтoв мы публикуем пoдрoбную метеoинфoрмацию в детальнoм прoфессиoнальнoм фoрмате.

Характеристики температуры и влажнoсти вoздуха измеряются на высoте 2 м в тени вдали oт зданий и деревьев.
Скoрoсть ветра измеряется на высoте 10 м (на урoвне рoста челoвека скoрoсть ветра ниже в 1.5-2 раза). Если метеoстанция нахoдится в гoрoде или в лесу, тo скoрoсть ветра занижена на 2-4 м/с пo сравнению с oткрытым местoм. Скoрoсть ветра над акватoриями крупных рек и oзёр, а также на вершинах хoлмoв на 2-5 м/с выше, чем в oбычных услoвиях.
Атмoсфернoе давление в разных тoчках местнoсти мoжет значительнo oтличаться oт давления на метеoстанции, в зависимoсти oт услoвий рельефа (при пoдъёме на 10 м давление пoнижается примернo на 1 мм рт.ст.).